Defiance, OH

5:38 PM EDT on September 22, 2017 (GMT -0400)
Defiance Memorial

Weather History for KDFI - May, 2014

Change the Weather History Date:

Friday, May 9, 2014

  Actual Average Record
Temperature  
Mean Temperature 70 °F -  
Max Temperature 78 °F 67 °F 89 °F (1936)
Min Temperature 60 °F 44 °F 30 °F (1954)
Cooling Degree Days 5    
Growing Degree Days 20 (Base 50)    
Moisture  
Dew Point 56 °F    
Average Humidity 61    
Maximum Humidity 78    
Minimum Humidity 51    
Precipitation  
Precipitation 0.13 in - - ()
Sea Level Pressure  
Sea Level Pressure 29.81 in    
Wind  
Wind Speed 11 mph (SSW)    
Max Wind Speed 20 mph    
Max Gust Speed 29 mph    
Visibility 10 miles    
Events Rain , Thunderstorm    
Averages and records for this station are not official NWS values.
T = Trace of Precipitation, MM = Missing Value Source: NWS Daily Summary

Daily Weather History Graph

Daily Weather History Graph

Search for Another Location

Airport or City:

Trip Planner

Search our weather history database for the weather conditions in past years. The results will help you decide how hot, cold, wet, or windy it might be!

Date:

Astronomy

May. 09, 2014 Rise Set
Actual Time 6:25 AM EDT 8:43 PM EDT
Civil Twilight 5:54 AM EDT 9:14 PM EDT
Nautical Twilight 5:16 AM EDT 9:52 PM EDT
Astronomical Twilight 4:34 AM EDT 10:35 PM EDT
Moon 3:36 PM EDT (5/9) 3:30 AM EDT (5/9)
Length of Visible Light 15h 20m
Length of Day
14h 18m
Waxing Gibbous, 73% of the Moon is Illuminated
May 9
Waxing Gibbous
May 14
Full
May 21
Last Quarter
May 28
New
Jun 5
First Quarter

Hourly Weather History & Observations

Time (EDT) Temp. Dew Point Humidity Pressure Visibility Wind Dir Wind Speed Gust Speed Precip Events Conditions
12:53 AM 73.9 °F 57.0 °F 55% 29.91 in 10.0 mi SSW 12.7 mph - N/A   Clear
1:53 AM 72.0 °F 57.0 °F 59% 29.90 in 10.0 mi South 9.2 mph - N/A   Clear
2:53 AM 72.0 °F 55.0 °F 55% 29.89 in 10.0 mi SSW 10.4 mph - N/A   Clear
3:53 AM 71.1 °F 54.0 °F 55% 29.88 in 10.0 mi SSW 9.2 mph - N/A   Clear
4:53 AM 70.0 °F 53.1 °F 55% 29.86 in 10.0 mi SSW 11.5 mph - N/A   Clear
5:53 AM 71.1 °F 53.1 °F 53% 29.85 in 10.0 mi SSW 12.7 mph - N/A   Clear
6:53 AM 70.0 °F 54.0 °F 57% 29.85 in 10.0 mi SW 5.8 mph - N/A   Clear
7:53 AM 70.0 °F 55.0 °F 59% 29.88 in 10.0 mi South 8.1 mph - N/A   Overcast
8:53 AM 70.0 °F 54.0 °F 57% 29.87 in 10.0 mi South 8.1 mph - N/A   Partly Cloudy
9:53 AM 73.0 °F 54.0 °F 51% 29.85 in 10.0 mi South 10.4 mph - N/A   Clear
11:53 AM 71.1 °F 61.0 °F 70% 29.82 in 10.0 mi WSW 10.4 mph 20.7 mph 0.04 in   Overcast
12:53 PM 71.1 °F 60.1 °F 68% 29.81 in 10.0 mi SW 15.0 mph 25.3 mph 0.00 in Rain Light Rain
1:53 PM 71.1 °F 59.0 °F 66% 29.79 in 10.0 mi SSW 11.5 mph - 0.00 in   Overcast
2:53 PM 73.0 °F 55.0 °F 53% 29.78 in 10.0 mi SW 17.3 mph 25.3 mph 0.00 in   Overcast
3:53 PM 73.0 °F 59.0 °F 61% 29.77 in 10.0 mi SW 18.4 mph 28.8 mph N/A   Overcast
4:53 PM 72.0 °F 61.0 °F 68% 29.75 in 10.0 mi SW 10.4 mph 17.3 mph 0.02 in   Mostly Cloudy
5:53 PM 77.0 °F 59.0 °F 54% 29.74 in 10.0 mi SSW 19.6 mph 26.5 mph N/A   Partly Cloudy
6:53 PM 75.9 °F 57.9 °F 54% 29.73 in 10.0 mi SW 12.7 mph 25.3 mph N/A   Scattered Clouds
7:07 PM 75.0 °F 57.9 °F 55% 29.75 in 10.0 mi SSW 18.4 mph 23.0 mph N/A Thunderstorm Scattered Clouds
7:16 PM 75.0 °F 57.9 °F 55% 29.75 in 10.0 mi SSW 12.7 mph - 0.00 in Rain , Thunderstorm Light Thunderstorms and Rain
7:40 PM 64.0 °F 53.1 °F 67% 29.77 in 10.0 mi SW 9.2 mph 21.9 mph 0.04 in Rain , Thunderstorm Light Rain
7:53 PM 63.0 °F 54.0 °F 72% 29.76 in 9.0 mi Variable 3.5 mph - 0.05 in Rain Light Rain
8:53 PM 63.0 °F 55.0 °F 75% 29.76 in 10.0 mi SW 6.9 mph - 0.02 in   Scattered Clouds
9:53 PM 64.0 °F 55.0 °F 73% 29.81 in 10.0 mi SSW 13.8 mph 23.0 mph 0.00 in Rain , Thunderstorm Light Rain
10:15 PM 64.9 °F 55.0 °F 70% 29.82 in 6.0 mi WSW 10.4 mph 19.6 mph 0.03 in Rain Rain
11:53 PM 60.1 °F 53.1 °F 78% 29.83 in 10.0 mi SSW 6.9 mph - N/A   Partly Cloudy